• Join FlightAware (Why Join?)
  • Login
  • US Flag GB Flag 
20:17 EDT


 

Airport Tracker/Info


-or-


 

Live Flight TrackerFlight Track Log ✈ SWA2436 ✈ 09-Apr-2013 ✈ KMSY - KHOU

Flight Track Log - Related Links

Times and Time Zones

All times are in EDT time to prevent confusion due to time zone crossing. See the SWA2436 flight status page for this flight to view local times or setup timezone preferences in your user account.

Time Position Orientation Groundspeed Altitude Reporting Facility
EDT Latitude Longitude Course Direction KTS MPH feet Rate Location/Type
22:45 29.9822 -90.2536 203° Southwest 148 170 700  Level Houston Center
22:45 29.9556 -90.2667 203° Southwest 162 186 2,000 2,040 Climbing Houston Center
22:46 29.9492 -90.2875 251° West 273 314 2,800 3,840 Climbing Houston Center
22:47 29.9433 -90.3747 266° West 274 315 7,500 4,260 Climbing Houston Center
22:48 29.9367 -90.4664 265° West 284 327 11,500 3,360 Climbing Houston Center
22:49 29.9256 -90.5786 264° West 352 405 14,400 3,360 Climbing Houston Center
22:50 29.9125 -90.6964 263° West 370 426 18,400 3,540 Climbing Houston Center
22:51 29.8978 -90.8169 262° West 379 436 21,700 2,940 Climbing Houston Center
22:52 29.8825 -90.9456 262° West 400 460 24,500 2,940 Climbing Houston Center
22:53 29.8550 -91.1011 259° West 414 476 27,700 3,000 Climbing Houston Center
22:54 29.8339 -91.2333 260° West 418 481 30,600 2,700 Climbing Houston Center
22:55 29.8136 -91.3622 260° West 411 473 33,200 1,620 Climbing Houston Center
22:56 29.7925 -91.4886 259° West 405 466 34,000 360 Climbing Houston Center
22:57 29.7711 -91.6161 259° West 406 467 34,000  Level Houston Center
22:58 29.7497 -91.7492 260° West 404 465 34,000  Level Houston Center
22:59 29.7292 -91.8769 260° West 406 467 34,000  Level Houston Center
23:00 29.7083 -92.0058 259° West 409 471 34,000  Level Houston Center
23:01 29.6869 -92.1344 259° West 409 471 34,000  Level Houston Center
23:02 29.6631 -92.2639 258° West 412 474 34,000  Level Houston Center
23:03 29.6436 -92.3931 260° West 411 473 34,000  Level Houston Center
23:04 29.6200 -92.5225 258° West 413 475 34,000  Level Houston Center
23:05 29.5986 -92.6514 259° West 411 473 34,000  Level Houston Center
23:06 29.5756 -92.7817 259° West 414 476 34,000  Level Houston Center
23:07 29.5522 -92.9142 259° West 419 482 34,000  Level Houston Center
23:08 29.5286 -93.0453 258° West 420 483 34,000  Level Houston Center
23:09 29.5069 -93.1736 259° West 410 472 34,000  Level Houston Center
23:10 29.4847 -93.2989 259° West 402 463 34,000 -840 Level Houston Center
23:11 29.4569 -93.4508 258° West 404 465 32,300 -2,100 Descending Houston Center
23:12 29.4353 -93.5722 258° West 392 451 29,800 -2,400 Descending Houston Center
23:13 29.4142 -93.6889 258° West 377 434 27,500 -2,340 Descending Houston Center
23:14 29.3933 -93.8064 259° West 360 414 25,200 -2,100 Descending Houston Center
23:15 29.3761 -93.8992 258° West 352 405 23,300 -1,740 Descending Houston Center
23:16 29.3572 -94.0033 258° West 339 390 21,700 -1,860 Descending Houston Center
23:17 29.3386 -94.1053 258° West 330 380 19,600 -2,040 Descending Houston Center
23:18 29.3203 -94.2028 258° West 316 364 17,600 -2,280 Descending Houston Center
23:19 29.3125 -94.2492 259° West 313 360 16,700 -2,280 Descending Houston Center
23:19 29.2917 -94.3139 250° West 304 350 15,300 -1,920 Descending Houston Center
23:20 29.2817 -94.3394 246° West 302 348 14,800 -1,800 Descending Houston Center
23:20 29.2739 -94.4092 263° West 307 353 13,500 -2,040 Descending Houston Center
23:21 29.2703 -94.4369 262° West 310 357 12,800 -1,500 Descending Houston Center
23:21 29.2792 -94.5092 278° West 320 368 12,000 -1,020 Descending Houston Center
23:22 29.2906 -94.5375 295° West 343 395 11,800 -1,320 Descending Houston Center
23:22 29.3256 -94.6031 301° West 337 388 10,700 -1,500 Descending Houston Center
23:23 29.3375 -94.6297 297° West 324 373 10,300 -1,500 Descending Houston Center
23:23 29.3675 -94.6886 300° West 315 362 9,200 -1,620 Descending Houston Center
23:24 29.3817 -94.7178 299° West 303 349 8,700 -1,200 Descending Houston Center
23:24 29.4089 -94.7728 300° West 306 352 8,000 -720 Descending Houston Center
23:25 29.4236 -94.8036 299° West 305 351 8,000  Level Houston Center
23:26 29.4511 -94.8561 301° West 303 349 8,000  Level Houston Center
23:26 29.4633 -94.8875 294° West 303 349 8,000 -900 Level Houston Center
23:27 29.4925 -94.9419 302° West 306 352 7,100 -1,140 Descending Houston Center
23:27 29.5075 -94.9781 296° West 310 357 6,900 -1,140 Descending Houston Center
23:28 29.5256 -95.0339 290° West 310 357 6,000 -900 Descending Houston Center
23:28 29.5353 -95.0706 287° West 313 360 6,000  Level Houston Center
23:29 29.5522 -95.1283 289° West 310 357 6,000  Level Houston Center
23:30 29.5803 -95.2261 288° West 309 356 6,000 -180 Level Houston Center
23:31 29.6050 -95.3094 289° West 273 314 5,700 -840 Descending Houston Center
23:32 29.6292 -95.3869 290° West 260 299 4,400 -1,440 Descending Houston Center
23:32 29.6419 -95.4061 307° West 258 297 3,900 -1,500 Descending Houston Center
23:33 29.6772 -95.4508 312° West 263 303 2,900 -960 Descending Houston Center
23:34 29.7458 -95.4178 23° Northeast 197 227 2,000 -480 Descending Houston Center
23:35 29.7364 -95.3886 110° East 196 226 2,000 -180 Level Houston Center
23:36 29.7117 -95.3578 133° Southeast 155 178 1,700 -420 Descending Houston Center
23:37 29.6900 -95.3322 134° Southeast 132 152 1,200 -600 Descending Houston Center
23:38 29.6697 -95.3086 135° Southeast 115 132 600 -600 Descending Houston Center